Regional Weather Roundup
Issued by NWS Huntsville, AL

Home | Current Version | Previous Version | Text Only | Print | Product List | Glossary On
Versions: 1 2 3 4 5 6 7 8 9 10 11 12 13 14 15 16 17 18 19 20 21 22 23 24 25 26 27 28 29 30 31 32 33 34 35 36 37 38 39 40 41 42 43 44 45 46 47 48 49 50
000
ASUS44 KHUN 180410
RWRHUN

WEATHER ROUNDUP FOR THE TENNESSEE VALLEY
NATIONAL WEATHER SERVICE HUNTSVILLE AL
1100 PM CDT WED SEP 17 2014

ALZ001>004-180500-
NORTHWEST ALABAMA

CITY           SKY/WX    TMP DP  RH WIND       PRES   REMARKS
SHOALS AIRPORT PTCLDY    63  58  83 CALM      29.98S
SHOALS TVA RES   N/A     63 N/A N/A MISG        N/A
$$

ALZ005>007-016-180500-
NORTH CENTRAL ALABAMA

CITY           SKY/WX    TMP DP  RH WIND       PRES   REMARKS
DECATUR AP     PTCLDY    62  57  83 NW3       29.98R
HUNTSVILLE AP  MOCLDY    66  57  72 CALM      29.97R
HUN NWS/UAH      N/A     68  54  62 N2          N/A
MERIDIANVILLE  MOCLDY    63  55  77 CALM      29.98R
VINEMONT AP    FAIR      58  55  88 CALM      29.99S
$$

ALZ008>010-180500-
NORTHEAST ALABAMA

CITY           SKY/WX    TMP DP  RH WIND       PRES   REMARKS
ALBERTVILLE    MOCLDY    64  61  88 NE3       29.96F
FORT PAYNE     MOCLDY    63  55  77 CALM      29.98S
SCOTTSBORO AP    N/A     64  61  88 CALM      29.98F
SCOTTSBORO HCN   N/A     63 N/A N/A MISG        N/A
VALLEY HEAD      N/A     61 N/A N/A MISG        N/A
$$

TNZ076-096-097-180500-
SOUTHEASTERN MIDDLE TENNESSEE

CITY           SKY/WX    TMP DP  RH WIND       PRES   REMARKS
FAYETTEVILLE   CLEAR     63  57  82 N5        29.99R
TULLAHOMA      CLEAR     59  55  88 CALM      30.00R
WINCHESTER     CLEAR     61  57  88 CALM      29.99S
$$

...SURROUNDING SITES...

CITY           SKY/WX    TMP DP  RH WIND       PRES   REMARKS
ATLANTA        PTCLDY    71  56  58 N6        29.96R
ANNISTON       CLEAR     63  58  83 CALM      29.97S
BIRMINGHAM     CLEAR     69  57  65 CALM      29.98S
CHATTANOOGA    CLOUDY    68  56  65 CALM      29.97S
CORINTH          N/A     64  63  94 CALM      29.97F
DALTON         PTCLDY    61  61 100 CALM      29.97S
GADSDEN        PTCLDY    63  55  77 CALM      29.98R
GOLDEN TRNGL   CLEAR     70  63  78 CALM      29.96S
HALEYVILLE     FAIR      62  59  90 CALM      30.01R
JACKSON TN     CLOUDY    63  61  93 CALM      29.98S
LEWISBURG      MOCLDY    61  59  93 CALM      29.99R
MEMPHIS        MOCLDY    69  63  81 E6        29.96R
MURFREESBORO   MOCLDY    62  57  83 CALM      29.99R
NASHVILLE      CLOUDY    65  60  84 CALM      29.99R
OXFORD MS      FAIR      68  64  88 E5        29.97R
ROME           PTCLDY    63  59  87 CALM      29.96S
SAVANNAH       PTCLDY    61  61 100 CALM      29.99S
TUPELO         CLEAR     70  65  84 CALM      29.95S
TUSCALOOSA     CLEAR     70  65  84 CALM      29.95R
$$

...GULF COAST WEATHER...

CITY           SKY/WX    TMP DP  RH WIND       PRES   REMARKS
GULFPORT       PTCLDY    77  73  87 NW3       29.93R
PASCAGOULA     CLEAR     73  72  96 CALM      29.93R
MOBILE         PTCLDY    75  70  84 CALM      29.94F
GULF SHORES    CLEAR     74  73  98 CALM      29.93S
PENSACOLA      PTCLDY    77  74  90 N5        29.92F
DESTIN         MOCLDY    82  74  76 CALM      29.92F
PANAMA CITY    CLEAR     75  71  89 CALM      29.92F
APPALACHICOLA  CLEAR     76  72  87 N3        29.93S
$$



USA.gov is the U.S. government's official web portal to all federal, state and local government web resources and services.